Flag for U.S.A. Weather past 2 weeks in Hialeah, Florida, U.S.A.

Now
67 °F

Clear.


Feels Like: 67 °F
Forecast: 58 / 74 °F
Wind: No wind

Location: Opa Locka Airport

Current Time: Mar 28, 2015 at 9:44:30 PM

Latest Report: Mar 28, 2015 at 8:53 PM


Visibility: 10 mi

Pressure: 30.19 "Hg

Humidity: 47%

Dew point: 46 °F

Location of HialeahLocation

Historic Weather in Hialeah — Graph

°F

Hialeah temperature yesterday

Maximum temperature yesterday: 91 °F (at 2:53 PM)
Minimum temperature yesterday: 69 °F (at 8:53 PM)
Average temperature yesterday: 79 °F

Past Weeks' High & Low Weather Summary

 TemperatureHumidityPressure
High91 °F (Mar 27, 2:53 PM)100% (Mar 25, 5:53 AM)30.19 "Hg (Mar 25, 5:53 AM)
Low62 °F (Mar 28, 7:53 AM)34% (Mar 23, 2:53 PM)29.82 "Hg (Mar 27, 4:53 PM)
Average76 °F71%30.04 "Hg
* Reported Mar 13 7:53 PM — Mar 28 7:53 PM, Hialeah, Weather by CustomWeather, © 2015

Note: Actual official high and low records may vary slightly from our data, if they occured in-between our weather recording intervals... More about our weather records

Advertising

Hialeah weather history for previous 24 hours

 ConditionsComfort  
Time TempWeatherWind HumidityBarometerVisibility
7:53 PM
Sat, Mar 28
68 °FSunny.6 mph44%30.15 "Hg10 mi
6:53 PM69 °FSunny.5 mph44%30.15 "Hg10 mi
5:53 PM70 °FSunny.9 mph42%30.14 "Hg10 mi
4:53 PM72 °FSunny.10 mph40%30.11 "Hg10 mi
3:53 PM71 °FSunny.14 mph42%30.13 "Hg10 mi
2:53 PM70 °FSunny.14 mph41%30.14 "Hg10 mi
1:53 PM72 °FSunny.13 mph35%30.15 "Hg10 mi
12:53 PM71 °FSunny.17 mph38%30.17 "Hg10 mi
11:53 AM70 °FSunny.13 mph39%30.16 "Hg10 mi
10:53 AM65 °FSunny.18 mph47%30.16 "Hg10 mi
9:53 AM63 °FSunny.12 mph48%30.14 "Hg10 mi
8:53 AM62 °FSunny.12 mph48%30.12 "Hg10 mi
7:53 AM62 °FClear.9 mph44%30.10 "Hg10 mi
6:53 AM63 °FClear.12 mph48%30.07 "Hg10 mi
5:53 AM64 °FClear.10 mph75%30.03 "Hg10 mi
4:53 AM65 °FClear.16 mph76%30.02 "Hg10 mi
3:53 AM66 °FClear.15 mph81%30.01 "Hg10 mi
2:53 AM69 °FPassing clouds.13 mph79%30.01 "Hg10 mi
1:53 AM70 °FOvercast.14 mph84%30.00 "Hg10 mi
12:53 AM70 °FPassing clouds.8 mph84%29.99 "Hg10 mi
11:53 PM
Fri, Mar 27
70 °FClear.10 mph84%29.97 "Hg10 mi
10:53 PM70 °FPassing clouds.7 mph87%29.95 "Hg10 mi
9:53 PM69 °FMostly cloudy.6 mph90%29.96 "Hg10 mi
Weather by CustomWeather, © 2015

See weather overviewHow to use our weather pages